www.pogodaiklimat.ru

Погода и климат >> Архив погоды >> Таиланд >> Чайнат Агромет


ПОГОДА в Чайнат Агромете

  • Прогноз погоды в Чайнат Агромете
  • Монитор погоды в Чайнат Агромете

АРХИВ ПОГОДЫ в Чайнат Агромете

Время (UTC), дата Ветер
(напр.,м/с)
 
Видим.   Явления Облачность Т
(С)
Тd
(С)
f
(%)
Тe
(С)
Тes
(С)
Комфортность P
(гПа)
Po
(гПа)
Тmin
(С)
Tmax
(С)
R
(мм)
R24
(мм)
S
(см)
21 16.05 ЮВ 2 7000 м дымка 8/3 600 м
[Sc Cs]
+27.0 +23.6 82 +37 +37 очень
душно
1006.7 1004.7
00 17.05 В 3 8000 м дымка 5/4 600 м
[Sc Ac lent Cs]
+26.7 +24.2 86 +37 +38 очень
душно
1007.8 1005.8 +26.2
03 17.05 З 10 12 км 8/4 600 м
[Sc Ac lent Cs]
+33.0 +22.5 54 +42 +43 опасность
перегрева
1008.9 1007.0
06 17.05 ЮЗ 2 12 км 4/4 600 м
[Cu hum Cs]
+36.0 +23.9 50 +47 +60 опасность
перегрева
1006.8 1004.9
09 17.05 Ю 3 12 км 1/1 600 м
[Sc Cs]
+37.2 +22.5 43 +46 +52 опасность
перегрева
1003.6 1001.8
12 17.05 ЮВ 7 10 км 8/4 600 м
[Sc Ac lent Cs]
+34.1 +24.5 57 +47 +47 опасность
перегрева
1005.1 1003.2 +37.8
15 17.05 Ю 5 8000 м дымка 6/4 600 м
[Sc Ac lent Cs]
+31.7 +24.6 66 +44 +44 опасность
перегрева
1006.5 1004.6
18 17.05 ЮВ 8 6000 м дымка 4/0
[Cs]
+29.1 +23.9 74 +40 +40 очень
душно
1006.2 1004.3
21 17.05 ЮВ 9 6000 м дымка 4/0
[Cs]
+27.5 +23.4 78 +37 +37 очень
душно
1005.2 1003.3
00 18.05 штиль 0 10 км 4/0
[Cs]
+27.5 +24.3 83 +39 +40 очень
душно
1007.1 1005.1 +26.6
03 18.05 ЮЗ 5 12 км 3/0
[Cs]
+32.5 +22.9 57 +43 +50 опасность
перегрева
1008.1 1006.2
06 18.05 ЮЗ 3 12 км 3/3 600 м
[Cu hum Cs]
+36.0 +23.1 47 +46 +58 опасность
перегрева
1006.0 1004.1
09 18.05 ЮЗ 3 12 км 3/1 600 м
[Cu hum Cs]
+37.5 +20.7 38 +44 +50 опасность
перегрева
1003.5 1001.6
12 18.05 ЮВ 3 10 км 3/3 600 м
[Sc Cs]
+33.9 +24.9 59 +47 +47 опасность
перегрева
1003.7 1001.8 +38.1
15 18.05 Ю 3 10 км 3/3 600 м
[Sc Cs]
+31.6 +24.3 65 +44 +44 опасность
перегрева
1006.4 1004.5
18 18.05 ЮВ 4 9000 м дымка 3/3 600 м
[Sc Cs]
+29.5 +23.9 72 +41 +41 опасность
перегрева
1005.9 1003.9
21 18.05 ЮВ 4 8000 м дымка 3/1 600 м
[Sc Cs]
+28.0 +22.9 74 +37 +37 очень
душно
1005.4 1003.4
00 19.05 ЮВ 3 10 км 1/0
[Cs]
+27.9 +23.5 77 +38 +39 очень
душно
1007.3 1005.3 +26.5
03 19.05 ЮВ 2 10 км 1/0
[Cs]
+33.8 +22.5 52 +43 +58 опасность
перегрева
1009.0 1007.1
06 19.05 СЗ 3 10 км 1/0
[Cs]
+37.0 +21.7 41 +45 +62 опасность
перегрева
1007.1 1005.2
09 19.05 штиль 0 10 км 1/0
[Cs]
+38.0 +22.4 41 +47 +58 опасность
перегрева
1004.5 1002.7
12 19.05 ЮВ 2 9000 м 1/0
[Cs]
+35.0 +24.4 54 +47 +47 опасность
перегрева
1005.7 1003.8 +38.2
15 19.05 Ю 3 9000 м мгла 1/0
[Cs]
+32.2 +24.4 63 +44 +44 опасность
перегрева
1007.5 1005.6
18 19.05 ЮЗ 2 9000 м дымка 1/0
[Cs]
+30.6 +24.0 68 +42 +42 опасность
перегрева
1008.7 1006.7
21 19.05 ЮВ 2 9000 м дымка 3/0
[Cs]
+29.0 +24.7 78 +41 +41 опасность
перегрева
1006.6 1004.7
00 20.05 ЮВ 4 10 км 3/0
[Cs]
+28.5 +25.1 82 +41 +42 опасность
перегрева
1007.8 1005.9 +28.3
03 20.05 штиль 0 14 км 3/0
[Cs]
+34.2 +25.5 61 +49 +69 опасность
перегрева
1009.0 1007.1
06 20.05 штиль 0 14 км 3/1 600 м
[Cu hum Cs]
+36.5 +24.5 50 +49 +74 опасность
перегрева
1007.3 1005.5
09 20.05 штиль 0 14 км 4/3 600 м
[Cu hum Ci]
+38.6 +24.4 45 +51 +58 опасность
перегрева
1004.3 1002.4
12 20.05 ЮВ 5 10 км дымка 4/3 600 м
[Cu hum Cs]
+34.2 +24.7 58 +47 +47 опасность
перегрева
1004.8 1003.0 +39.0
15 20.05 Ю 10 9000 м дымка 3/1 600 м
[Cu hum Cs]
+31.5 +23.9 64 +43 +43 опасность
перегрева
1008.1 1006.2
18 20.05 штиль 0 8000 м дымка 3/1 600 м
[Cu hum Cs]
+29.5 +23.7 71 +40 +40 очень
душно
1006.5 1004.6
21 20.05 штиль 0 8000 м дымка 3/1 600 м
[Cu hum Cs]
+28.0 +23.6 77 +38 +38 очень
душно
1006.3 1004.4
00 21.05 штиль 0 12 км 3/0
[Cs]
+28.5 +24.9 81 +41 +43 опасность
перегрева
1007.9 1006.0 +28.0
03 21.05 ЮВ 3 12 км 3/0
[Cs]
+33.3 +24.3 59 +45 +58 опасность
перегрева
1008.9 1007.0
06 21.05 ЮВ 2 10 км 3/0
[Cs]
+36.5 +24.5 50 +49 +69 опасность
перегрева
1007.4 1005.5
09 21.05 ЮВ 4 10 км 3/0
[Cs]
+37.5 +23.6 45 +48 +53 опасность
перегрева
1017.5 1015.6
12 21.05 штиль 0 10 км 4/0
[Cs]
+34.3 +25.6 61 +49 +49 опасность
перегрева
1004.9 1003.0 +38.5
15 21.05 Ю 7 7000 м зарница 5/0
[Cs]
+32.2 +24.4 63 +44 +44 опасность
перегрева
1007.2 1005.3
18 21.05 СЗ 4 6000 м гроза, ливневой дождь 10/4 600 м
[Cb cap Ac As Cs]
+26.3 +23.7 86 +36 +36 очень
душно
1009.9 1008.0 1
21 21.05 штиль 0 5000 м слаб. дождь {гроза} 10/4 600 м
[Cb cap Ac As Cs]
+25.0 +23.5 91 +34 +34 очень
душно
1009.5 1007.5 5
00 22.05 ЮЗ 4 8000 м дымка {дождь} 10/3 600 м
[Cb cap Ac As Cs]
+25.0 +23.5 91 +34 +34 очень
душно
1009.4 1007.5 +24.6 0.4
03 22.05 В 2 8000 м дымка 10/6 600 м
[Sc Ac As Cs]
+29.3 +24.1 74 +41 +44 опасность
перегрева
1010.4 1008.5
06 22.05 В 7 12 км 8/3 600 м
[Cb calv Ac und Cs]
+32.4 +24.1 62 +45 +47 опасность
перегрева
1008.8 1006.9
09 22.05 З 5 9000 м осадки на расстоянии 8/3 600 м
[Cb cap Ac und Cs]
+33.4 +24.5 60 +46 +48 опасность
перегрева
1005.9 1004.0
12 22.05 ЮЗ 10 8000 м зарница 8/5 600 м
[Cb cap Ac und Cs]
+27.4 +22.4 74 +36 +36 очень
душно
1007.9 1006.0 +34.8
15 22.05 Ю 2 8000 м дымка 8/4 600 м
[Sc Ac lent Cs]
+26.5 +23.3 83 +36 +36 очень
душно
1009.2 1007.3
18 22.05 Ю 4 8000 м дымка 6/4 600 м
[Sc Ac lent Cs]
+26.0 +23.8 88 +36 +36 очень
душно
1009.2 1007.3
21 22.05 ЮВ 2 8000 м дымка 6/4 600 м
[Sc Ac lent Cs]
+25.2 +23.6 91 +34 +34 очень
душно
1007.9 1006.0
00 23.05 ЮВ 4 6000 м дымка 8/6 600 м
[Sc Ac und Cs]
+25.7 +24.4 93 +36 +36 очень
душно
1009.1 1007.1 +24.8
03 23.05 ЮВ 2 10 км 4/4 600 м
[Sc Cs]
+30.1 +25.0 74 +43 +53 опасность
перегрева
1010.3 1008.3
06 23.05 СЗ 4 12 км 6/6 600 м
[Cu hum Cs]
+34.5 +23.1 52 +45 +51 опасность
перегрева
1007.5 1005.6
09 23.05 З 16 10 км гроза без осадков 8/6 300 м
[Cb cap Cs]
+34.0 +23.2 53 +44 +44 опасность
перегрева
1006.1 1004.3
12 23.05 штиль 0 8000 м дымка {гроза, дождь} 9/9 600 м
[Sc Cs]
+27.0 +24.0 84 +37 +37 очень
душно
1008.1 1006.2 +36.0 0.2
15 23.05 ЮВ 4 7000 м дымка {дождь} 8/8 600 м
[Sc Cs]
+27.4 +24.8 86 +39 +39 очень
душно
1009.7 1007.7 0.0
18 23.05 ЮВ 3 6000 м дымка {дождь} 9/8 600 м
[Sc Cs]
+26.5 +23.7 85 +36 +36 очень
душно
1008.9 1007.0 0.2

 

Местоположение метеостанции Чайнат Агромет (Таиланд): широта 15.15 долгота 100.18 высота над уровнем моря 17 м.

В архиве по умолчанию представлена погода в Чайнат Агромете за последнюю неделю. Архивные данные за месяц целиком и за предыдущие месяцы, начиная с января 2011 года, Вы можете получить, выбрав интересующий диапазон дат из раскрывающегося списка и нажав кнопку "Ввод!".


*Определитесь, кто Вы:
робот инопланетянин человек

Внимание! Время в таблицах - всемирное. Для получения местного времени необходимо прибавить поправку, которая равна 7 ч.

Смотрите также архив погоды в соседних городах и на ближайших метеорологических станциях:

Погода в Утай Тани (Таиланд) (30 км)
Погода в Такфа Агромете (Таиланд) (41 км)
Погода в Лопбури (Таиланд) (60 км)
Погода в Накхон Саван (Таиланд) (72 км)
Погода в Лаем-Чабанге (Таиланд) (76 км)
Погода в Суфанбури (Таиланд) (76 км)
Погода в Аюттхая (Таиланд) (91 км)
Погода в У-Тхонг Агромете (Таиланд) (100 км)
Погода в Сарабури (Таиланд) (106 км)
Погода в Буа Чум (Таиланд) (108 км)

Пояснения к столбцам:

Ветер - указаны скорость ветра в м/с - средняя за 10 мин, порывы в срок и между сроками (в фигурных скобках) и направление, откуда дует ветер: С - северный, СВ - северо-восточный, В - восточный, ЮВ - юго-восточный, Ю - южный, ЮЗ - юго-западный, З - западный, СЗ - северо-западный.
Видимость - горизонтальная дальность видимости в метрах или километрах. При видимости от 1 до 10 км при отсутствии осадков обычно наблюдается дымка, при ухудшении видимости до 1 км и менее - туман. В сухую погоду видимость может ухудшаться дымом, пылью или мглою.
Явления - указаны атмосферные явления, наблюдавшиеся в срок или в последний час перед сроком; фигурными скобками обозначены явления, наблюдавшиеся между сроками (за 1-3 часа до срока); квадратными скобками обозначены град или гололедные отложения с указанием их диаметра в мм.
Облачность - указаны через наклонную черту общая и нижняя облачность в баллах и высота нижней границы облаков в метрах; квадратными скобками обозначены формы облаков: Ci - перистые, Cs - перисто-слоистые, Cc - перисто-кучевые, Ac - высококучевые, As - высокослоистые, Sc - слоисто-кучевые, Ns - слоисто-дождевые, Cu - кучевые, Cb - кучево-дождевые. Подробнее классификацию облаков см. в Атласе облаков (PDF).
T - Температура воздуха - температура, измеренная на высоте 2 м над землей.
Td - Температура точки росы - температура, при понижении до которой содержащийся в воздухе водяной пар достигнет насыщения.
f - Относительная влажность воздуха - влажноcть воздуха, измеренная на высоте 2 м над землей.
Te - Эффективная температура - температура, которую ощущает одетый по сезону человек в тени. Характеристика душности погоды. При расчете учитывается влияние влажности воздуха и скорости ветра на теплоощущения человека.
Tes - Эффективная температура на солнце - температура, которую ощущает человек, с поправкой на солнечный нагрев. Характеристика знойности погоды. Зависит от высоты солнца над горизонтом, облачности и скорости ветра. Ночью, в пасмурную погоду, а также при ветре 12 м/с и более поправка равна нулю.
P - Атмосферное давление - приведенное к уровню моря атмосферное давление.
Po - Атмосферное давление - измеренное на уровне метеостанции атмосферное давление.
Tmin - Минимальная температура - минимум температуры воздуха на высоте 2 м над землей.
Tmax - Максимальная температура - максимум температуры воздуха на высоте 2 м над землей.
R - Количество осадков - Количество выпавших осадков за период времени, мм. При наведении курсора мыши на число - период времени, за который выпало указанное количество осадков.
R24 - Количество осадков - Количество выпавших осадков за 24 часа, мм.
S - Снежный покров - Высота снежного покрова, см. При наведении курсора мыши на число - состояние снежного покрова и степень покрытия местности в баллах.